Location: Buffign�court
(47.8126°N, 6.0176°E)
Time: 02:47:25
(UTC+00:00)

USA 81 - Pass Details

Date: 16 June 2021
Orbit: 784 x 789 km, 85.0° (Epoch: 12 June)

Event Time Altitude Azimuth Distance (km) Brightness Sun altitude
Rises 20:19:03 0° 356° (N) 3,289 8.2 -6.1°
Reaches altitude 10° 20:21:27 10° 358° (N) 2,355 7.3 -6.4°
Maximum altitude 20:26:43 70° 82° (E) 837 4.1 -7.0°
Drops below altitude 10° 20:31:57 10° 167° (SSE) 2,337 6.0 -7.6°
Enters shadow 20:33:00 - 168° (SSE) 2,747 6.3 -7.7°
